Location: Rowland
(34.5359°N, 79.2929°W)
Time: 19:46:24
(UTC+00:00)

Transit 2A Rocket - Pass Details

Date: 10 October 2022
Orbit: 589 x 911 km, 66.7° (Epoch: 03 December)

Event Time Altitude Azimuth Distance (km) Brightness Sun altitude
Rises 17:31:18 0° 344° (NNW) 3,062 7.8 48.1°
Reaches altitude 10° 17:33:46 10° 355° (N) 2,194 7.1 48.0°
Maximum altitude 17:38:15 32° 58° (ENE) 1,288 6.2 47.9°
Drops below altitude 10° 17:43:05 10° 120° (ESE) 2,379 7.8 47.6°
Sets 17:45:52 0° 130° (SE) 3,361 8.6 47.5°
